Tracking 27107 objects as of 20-Mar-2023
HD Live streaming from Space Station
objects crossing your sky now

STARLINK-2133

Track STARLINK-2133 now!
10-day predictions
STARLINK-2133 is classified as:


NORAD ID: 47406
Int'l Code: 2021-005BK
Perigee: 553.5 km
Apogee: 555.3 km
Inclination: 53.1 °
Period: 95.6 minutes
Semi major axis: 6925 km
RCS: Unknown
Launch date: January 20, 2021
Source: United States (US)
Launch site: AIR FORCE EASTERN TEST RANGE (AFETR)
Your satellite tracking list
Your tracking list is empty




NASA's NSSDC Master Catalog

Two Line Element Set (TLE):
1 47406U 21005BK  23078.66645882  .00019272  00000-0  13096-2 0  9996
2 47406  53.0521 226.9604 0001320  76.0773 284.0363 15.06386479119774
Source of the keplerian elements: AFSPC